Time,TemperatureF,DewpointF,PressureIn,WindDirection,WindDirectionDegrees,WindSpeedMPH,WindSpeedGustMPH,Humidity,HourlyPrecipIn,Conditions,Clouds,dailyrainin,SoftwareType,DateUTC
2013-03-04 00:00:00,30.4,16.6,29.78,NNW,336,0.0,0.0,56,0.00,,,0.00,Wunderground v.1.15,2013-03-04 05:00:00,
2013-03-04 00:01:00,30.4,16.6,29.78,West,279,0.0,0.0,56,0.00,,,0.00,Wunderground v.1.15,2013-03-04 05:01:00,
2013-03-04 00:05:00,30.3,16.5,29.78,WNW,290,0.0,0.0,56,0.00,,,0.00,Wunderground v.1.15,2013-03-04 05:05:00,
2013-03-04 00:10:00,30.3,16.5,29.79,NW,312,0.0,0.0,56,0.00,,,0.00,Wunderground v.1.15,2013-03-04 05:10:00,
2013-03-04 00:15:00,30.1,15.9,29.79,WNW,289,0.0,0.0,55,0.00,,,0.00,Wunderground v.1.15,2013-03-04 05:15:00,
2013-03-04 00:20:00,30.1,15.9,29.79,WNW,298,0.0,0.0,55,0.00,,,0.00,Wunderground v.1.15,2013-03-04 05:20:00,
2013-03-04 00:25:00,30.1,15.9,29.78,WNW,283,0.0,0.0,55,0.00,,,0.00,Wunderground v.1.15,2013-03-04 05:25:00,
2013-03-04 00:30:00,30.1,15.4,29.78,NW,317,0.0,0.0,54,0.00,,,0.00,Wunderground v.1.15,2013-03-04 05:30:00,
2013-03-04 00:36:00,30.0,15.3,29.79,West,271,0.0,0.0,54,0.00,,,0.00,Wunderground v.1.15,2013-03-04 05:36:00,
2013-03-04 00:41:00,29.8,15.2,29.79,NNW,333,0.0,0.0,54,0.00,,,0.00,Wunderground v.1.15,2013-03-04 05:41:00,
2013-03-04 00:46:00,29.8,14.7,29.79,WNW,282,0.0,0.0,53,0.00,,,0.00,Wunderground v.1.15,2013-03-04 05:46:00,
2013-03-04 00:51:00,29.8,14.7,29.79,WNW,283,0.0,0.0,53,0.00,,,0.00,Wunderground v.1.15,2013-03-04 05:51:00,
2013-03-04 00:56:00,29.7,15.1,29.79,WNW,284,0.0,0.0,54,0.00,,,0.00,Wunderground v.1.15,2013-03-04 05:56:00,
2013-03-04 01:01:00,29.5,14.9,29.79,West,275,0.0,0.0,54,0.00,,,0.00,Wunderground v.1.15,2013-03-04 06:01:00,
2013-03-04 01:07:00,29.5,14.5,29.79,NW,319,0.0,0.0,53,0.00,,,0.00,Wunderground v.1.15,2013-03-04 06:07:00,
2013-03-04 01:12:00,29.5,14.0,29.79,NW,309,0.0,0.0,52,0.00,,,0.00,Wunderground v.1.15,2013-03-04 06:12:00,
2013-03-04 01:17:00,29.5,14.0,29.79,NW,321,0.0,0.0,52,0.00,,,0.00,Wunderground v.1.15,2013-03-04 06:17:00,
2013-03-04 01:22:00,29.4,13.9,29.79,West,275,0.0,0.0,52,0.00,,,0.00,Wunderground v.1.15,2013-03-04 06:22:00,
2013-03-04 01:27:00,29.4,13.9,29.79,NW,304,0.0,0.0,52,0.00,,,0.00,Wunderground v.1.15,2013-03-04 06:27:00,
2013-03-04 01:32:00,29.4,13.9,29.79,WNW,284,0.0,0.0,52,0.00,,,0.00,Wunderground v.1.15,2013-03-04 06:32:00,
2013-03-04 01:37:00,29.3,14.3,29.79,NW,315,0.0,0.0,53,0.00,,,0.00,Wunderground v.1.15,2013-03-04 06:37:00,
2013-03-04 01:42:00,29.1,14.1,29.79,WNW,284,0.0,0.0,53,0.00,,,0.00,Wunderground v.1.15,2013-03-04 06:42:00,
2013-03-04 01:48:00,29.1,14.1,29.79,West,261,0.0,0.0,53,0.00,,,0.00,Wunderground v.1.15,2013-03-04 06:48:00,
2013-03-04 01:53:00,29.1,14.1,29.79,WNW,288,0.0,0.0,53,0.00,,,0.00,Wunderground v.1.15,2013-03-04 06:53:00,
2013-03-04 01:59:00,29.0,14.4,29.79,WNW,282,0.0,0.0,54,0.00,,,0.00,Wunderground v.1.15,2013-03-04 06:59:00,
2013-03-04 02:04:00,29.0,14.4,29.79,NNW,348,0.0,0.0,54,0.00,,,0.00,Wunderground v.1.15,2013-03-04 07:04:00,
2013-03-04 02:09:00,29.0,14.4,29.79,WNW,299,0.0,0.0,54,0.00,,,0.00,Wunderground v.1.15,2013-03-04 07:09:00,
2013-03-04 02:14:00,28.8,14.2,29.79,NW,322,0.0,0.0,54,0.00,,,0.00,Wunderground v.1.15,2013-03-04 07:14:00,
2013-03-04 02:19:00,28.8,14.2,29.79,WNW,300,0.0,0.0,54,0.00,,,0.00,Wunderground v.1.15,2013-03-04 07:19:00,
2013-03-04 02:24:00,28.8,14.2,29.79,NW,320,0.0,0.0,54,0.00,,,0.00,Wunderground v.1.15,2013-03-04 07:24:00,
2013-03-04 02:29:00,28.8,14.2,29.79,West,270,0.0,0.0,54,0.00,,,0.00,Wunderground v.1.15,2013-03-04 07:29:00,
2013-03-04 02:34:00,28.7,14.1,29.79,WNW,295,0.0,0.0,54,0.00,,,0.00,Wunderground v.1.15,2013-03-04 07:34:00,
2013-03-04 02:39:00,28.7,14.1,29.79,WNW,291,0.0,0.0,54,0.00,,,0.00,Wunderground v.1.15,2013-03-04 07:39:00,
2013-03-04 02:44:00,28.5,14.4,29.79,WNW,284,0.0,0.0,55,0.00,,,0.00,Wunderground v.1.15,2013-03-04 07:44:00,
2013-03-04 02:49:00,28.5,13.9,29.79,WNW,300,0.0,0.0,54,0.00,,,0.00,Wunderground v.1.15,2013-03-04 07:49:00,
2013-03-04 02:54:00,28.5,14.4,29.79,WNW,301,0.0,0.0,55,0.00,,,0.00,Wunderground v.1.15,2013-03-04 07:54:00,
2013-03-04 02:59:00,28.4,14.3,29.79,WNW,294,0.0,0.0,55,0.00,,,0.00,Wunderground v.1.15,2013-03-04 07:59:00,
2013-03-04 03:04:00,28.4,14.3,29.79,WNW,302,0.0,0.0,55,0.00,,,0.00,Wunderground v.1.15,2013-03-04 08:04:00,
2013-03-04 03:09:00,28.2,14.1,29.79,WNW,303,0.0,0.0,55,0.00,,,0.00,Wunderground v.1.15,2013-03-04 08:09:00,
2013-03-04 03:14:00,28.2,14.1,29.79,West,265,0.0,0.0,55,0.00,,,0.00,Wunderground v.1.15,2013-03-04 08:14:00,
2013-03-04 03:19:00,28.2,14.1,29.80,WNW,295,0.0,0.0,55,0.00,,,0.00,Wunderground v.1.15,2013-03-04 08:19:00,
2013-03-04 03:24:00,28.2,14.5,29.79,WNW,294,0.0,0.0,56,0.00,,,0.00,Wunderground v.1.15,2013-03-04 08:24:00,
2013-03-04 03:29:00,28.2,14.5,29.80,North,350,0.0,0.0,56,0.00,,,0.00,Wunderground v.1.15,2013-03-04 08:29:00,
2013-03-04 03:34:00,28.1,14.4,29.80,WSW,255,0.0,0.0,56,0.00,,,0.00,Wunderground v.1.15,2013-03-04 08:34:00,
2013-03-04 03:39:00,28.1,14.8,29.80,WNW,300,0.0,0.0,57,0.00,,,0.00,Wunderground v.1.15,2013-03-04 08:39:00,
2013-03-04 03:44:00,27.9,14.6,29.80,West,277,0.0,0.0,57,0.00,,,0.00,Wunderground v.1.15,2013-03-04 08:44:00,
2013-03-04 03:49:00,28.1,14.8,29.80,WNW,286,0.0,0.0,57,0.00,,,0.00,Wunderground v.1.15,2013-03-04 08:49:00,
2013-03-04 03:54:00,27.9,15.0,29.80,NW,306,0.0,0.0,58,0.00,,,0.00,Wunderground v.1.15,2013-03-04 08:54:00,
2013-03-04 03:59:00,27.9,15.0,29.80,WNW,282,0.0,0.0,58,0.00,,,0.00,Wunderground v.1.15,2013-03-04 08:59:00,
2013-03-04 04:04:00,27.9,15.0,29.80,WSW,240,0.0,0.0,58,0.00,,,0.00,Wunderground v.1.15,2013-03-04 09:04:00,
2013-03-04 04:09:00,27.9,15.4,29.80,NW,304,0.0,0.0,59,0.00,,,0.00,Wunderground v.1.15,2013-03-04 09:09:00,
2013-03-04 04:14:00,27.8,15.3,29.80,NW,320,0.0,0.0,59,0.00,,,0.00,Wunderground v.1.15,2013-03-04 09:14:00,
2013-03-04 04:20:00,27.8,15.3,29.81,WNW,283,0.0,0.0,59,0.00,,,0.00,Wunderground v.1.15,2013-03-04 09:20:00,
2013-03-04 04:25:00,27.8,15.3,29.81,West,270,0.0,0.0,59,0.00,,,0.00,Wunderground v.1.15,2013-03-04 09:25:00,
2013-03-04 04:30:00,27.8,15.3,29.80,West,267,0.0,0.0,59,0.00,,,0.00,Wunderground v.1.15,2013-03-04 09:30:00,
2013-03-04 04:35:00,27.8,15.7,29.81,NW,304,0.0,0.0,60,0.00,,,0.00,Wunderground v.1.15,2013-03-04 09:35:00,
2013-03-04 04:40:00,27.6,15.5,29.81,WNW,297,0.0,0.0,60,0.00,,,0.00,Wunderground v.1.15,2013-03-04 09:40:00,
2013-03-04 04:45:00,27.6,15.5,29.81,West,277,0.0,0.0,60,0.00,,,0.00,Wunderground v.1.15,2013-03-04 09:45:00,
2013-03-04 04:50:00,27.6,15.5,29.81,NW,309,0.0,0.0,60,0.00,,,0.00,Wunderground v.1.15,2013-03-04 09:50:00,
2013-03-04 04:55:00,27.6,15.5,29.81,NW,304,0.0,0.0,60,0.00,,,0.00,Wunderground v.1.15,2013-03-04 09:55:00,
2013-03-04 05:00:00,27.6,15.5,29.81,WNW,294,0.0,0.0,60,0.00,,,0.00,Wunderground v.1.15,2013-03-04 10:00:00,
2013-03-04 05:05:00,27.6,15.5,29.81,NW,309,0.0,0.0,60,0.00,,,0.00,Wunderground v.1.15,2013-03-04 10:05:00,
2013-03-04 05:10:00,27.6,15.9,29.81,WNW,284,0.0,0.0,61,0.00,,,0.00,Wunderground v.1.15,2013-03-04 10:10:00,
2013-03-04 05:15:00,27.5,15.8,29.81,WSW,248,0.0,0.0,61,0.00,,,0.00,Wunderground v.1.15,2013-03-04 10:15:00,
2013-03-04 05:20:00,27.6,15.9,29.82,West,279,0.0,0.0,61,0.00,,,0.00,Wunderground v.1.15,2013-03-04 10:20:00,
2013-03-04 05:25:00,27.6,15.9,29.82,West,280,0.0,0.0,61,0.00,,,0.00,Wunderground v.1.15,2013-03-04 10:25:00,
2013-03-04 05:30:00,27.6,15.9,29.82,West,275,0.0,0.0,61,0.00,,,0.00,Wunderground v.1.15,2013-03-04 10:30:00,
2013-03-04 05:35:00,27.6,15.9,29.82,WNW,303,0.0,0.0,61,0.00,,,0.00,Wunderground v.1.15,2013-03-04 10:35:00,
2013-03-04 05:40:00,27.6,15.9,29.82,WNW,294,0.0,0.0,61,0.00,,,0.00,Wunderground v.1.15,2013-03-04 10:40:00,
2013-03-04 05:45:00,27.6,15.9,29.82,NW,306,0.0,0.0,61,0.00,,,0.00,Wunderground v.1.15,2013-03-04 10:45:00,
2013-03-04 05:50:00,27.6,15.9,29.82,WNW,302,0.0,0.0,61,0.00,,,0.00,Wunderground v.1.15,2013-03-04 10:50:00,
2013-03-04 05:56:00,27.6,15.9,29.82,WNW,292,0.0,0.0,61,0.00,,,0.00,Wunderground v.1.15,2013-03-04 10:56:00,
2013-03-04 06:01:00,27.6,15.9,29.82,WNW,296,0.0,0.0,61,0.00,,,0.00,Wunderground v.1.15,2013-03-04 11:01:00,
2013-03-04 06:06:00,27.6,15.9,29.82,WNW,292,0.0,0.0,61,0.00,,,0.00,Wunderground v.1.15,2013-03-04 11:06:00,
2013-03-04 06:11:00,27.8,16.1,29.82,West,267,0.0,0.0,61,0.00,,,0.00,Wunderground v.1.15,2013-03-04 11:11:00,
2013-03-04 06:16:00,27.8,16.1,29.82,NW,306,0.0,0.0,61,0.00,,,0.00,Wunderground v.1.15,2013-03-04 11:16:00,
2013-03-04 06:21:00,27.6,15.9,29.83,WNW,293,0.0,0.0,61,0.00,,,0.00,Wunderground v.1.15,2013-03-04 11:21:00,
2013-03-04 06:26:00,27.8,16.1,29.83,WNW,298,0.0,0.0,61,0.00,,,0.00,Wunderground v.1.15,2013-03-04 11:26:00,
2013-03-04 06:31:00,27.8,16.1,29.83,West,273,0.0,0.0,61,0.00,,,0.00,Wunderground v.1.15,2013-03-04 11:31:00,
2013-03-04 06:36:00,27.8,16.1,29.83,NNW,327,0.0,0.0,61,0.00,,,0.00,Wunderground v.1.15,2013-03-04 11:36:00,
2013-03-04 06:41:00,27.9,16.2,29.83,WNW,300,0.0,0.0,61,0.00,,,0.00,Wunderground v.1.15,2013-03-04 11:41:00,
2013-03-04 06:46:00,28.1,16.4,29.83,WNW,299,0.0,0.0,61,0.00,,,0.00,Wunderground v.1.15,2013-03-04 11:46:00,
2013-03-04 06:51:00,28.1,16.4,29.83,WNW,290,0.0,0.0,61,0.00,,,0.00,Wunderground v.1.15,2013-03-04 11:51:00,
2013-03-04 06:56:00,28.2,16.1,29.83,WNW,301,0.0,0.0,60,0.00,,,0.00,Wunderground v.1.15,2013-03-04 11:56:00,
2013-03-04 07:02:00,28.4,16.3,29.83,WNW,284,0.0,0.0,60,0.00,,,0.00,Wunderground v.1.15,2013-03-04 12:02:00,
2013-03-04 07:07:00,28.7,16.6,29.83,WSW,248,0.0,0.0,60,0.00,,,0.00,Wunderground v.1.15,2013-03-04 12:07:00,
2013-03-04 07:12:00,28.8,16.6,29.83,WNW,302,0.0,0.0,60,0.00,,,0.00,Wunderground v.1.15,2013-03-04 12:12:00,
2013-03-04 07:17:00,29.0,16.4,29.83,West,280,0.0,0.0,59,0.00,,,0.00,Wunderground v.1.15,2013-03-04 12:17:00,
2013-03-04 07:22:00,29.1,16.5,29.84,WNW,298,0.0,0.0,59,0.00,,,0.00,Wunderground v.1.15,2013-03-04 12:22:00,
2013-03-04 07:27:00,29.4,16.8,29.84,WNW,286,0.0,0.0,59,0.00,,,0.00,Wunderground v.1.15,2013-03-04 12:27:00,
2013-03-04 07:32:00,29.5,16.9,29.84,West,281,0.0,0.0,59,0.00,,,0.00,Wunderground v.1.15,2013-03-04 12:32:00,
2013-03-04 07:37:00,29.8,16.8,29.84,West,265,0.0,0.0,58,0.00,,,0.00,Wunderground v.1.15,2013-03-04 12:37:00,
2013-03-04 07:42:00,30.1,17.1,29.84,WNW,286,0.0,0.0,58,0.00,,,0.00,Wunderground v.1.15,2013-03-04 12:42:00,
2013-03-04 07:47:00,30.3,17.3,29.84,WSW,246,0.0,0.0,58,0.00,,,0.00,Wunderground v.1.15,2013-03-04 12:47:00,
2013-03-04 07:52:00,30.4,17.0,29.84,WSW,242,0.0,0.0,57,0.00,,,0.00,Wunderground v.1.15,2013-03-04 12:52:00,
2013-03-04 07:57:00,30.6,17.2,29.84,NW,313,0.0,0.0,57,0.00,,,0.00,Wunderground v.1.15,2013-03-04 12:57:00,
2013-03-04 08:02:00,30.9,17.4,29.84,WNW,293,0.0,0.0,57,0.00,,,0.00,Wunderground v.1.15,2013-03-04 13:02:00,
2013-03-04 08:07:00,31.0,17.1,29.84,NW,304,0.0,0.0,56,0.00,,,0.00,Wunderground v.1.15,2013-03-04 13:07:00,
2013-03-04 08:12:00,31.2,17.3,29.84,WNW,282,0.0,0.0,56,0.00,,,0.00,Wunderground v.1.15,2013-03-04 13:12:00,
2013-03-04 08:17:00,31.2,17.3,29.83,West,277,0.0,0.0,56,0.00,,,0.00,Wunderground v.1.15,2013-03-04 13:17:00,
2013-03-04 08:22:00,31.3,17.4,29.83,NW,309,0.0,0.0,56,0.00,,,0.00,Wunderground v.1.15,2013-03-04 13:22:00,
2013-03-04 08:27:00,31.5,17.6,29.83,West,281,0.0,0.0,56,0.00,,,0.00,Wunderground v.1.15,2013-03-04 13:27:00,
2013-03-04 08:33:00,31.8,17.9,29.83,West,278,0.0,0.0,56,0.00,,,0.00,Wunderground v.1.15,2013-03-04 13:33:00,
2013-03-04 08:38:00,31.9,17.5,29.83,WSW,257,0.0,0.0,55,0.00,,,0.00,Wunderground v.1.15,2013-03-04 13:38:00,
2013-03-04 08:43:00,32.1,17.7,29.83,WNW,289,0.0,0.0,55,0.00,,,0.00,Wunderground v.1.15,2013-03-04 13:43:00,
2013-03-04 08:49:00,32.2,17.8,29.83,West,277,0.0,0.0,55,0.00,,,0.00,Wunderground v.1.15,2013-03-04 13:49:00,
2013-03-04 08:54:00,32.1,17.7,29.84,WNW,296,0.0,0.0,55,0.00,,,0.00,Wunderground v.1.15,2013-03-04 13:54:00,
2013-03-04 08:59:00,32.4,17.6,29.83,SW,229,0.0,0.0,54,0.00,,,0.00,Wunderground v.1.15,2013-03-04 13:59:00,
2013-03-04 09:04:00,32.5,17.7,29.83,NW,323,0.0,0.0,54,0.00,,,0.00,Wunderground v.1.15,2013-03-04 14:04:00,
2013-03-04 09:09:00,32.5,17.7,29.83,NW,311,0.0,0.0,54,0.00,,,0.00,Wunderground v.1.15,2013-03-04 14:09:00,
2013-03-04 09:14:00,32.5,17.7,29.83,WNW,290,0.0,0.0,54,0.00,,,0.00,Wunderground v.1.15,2013-03-04 14:14:00,
2013-03-04 09:19:00,32.7,17.4,29.83,West,267,0.0,0.0,53,0.00,,,0.00,Wunderground v.1.15,2013-03-04 14:19:00,
2013-03-04 09:24:00,32.9,18.1,29.83,West,273,0.0,0.0,54,0.00,,,0.00,Wunderground v.1.15,2013-03-04 14:24:00,
2013-03-04 09:29:00,33.1,17.8,29.83,WNW,287,0.0,0.0,53,0.00,,,0.00,Wunderground v.1.15,2013-03-04 14:29:00,
2013-03-04 09:34:00,33.7,17.9,29.83,NNW,336,0.0,0.0,52,0.00,,,0.00,Wunderground v.1.15,2013-03-04 14:34:00,
2013-03-04 09:39:00,33.5,17.7,29.83,West,273,0.0,0.0,52,0.00,,,0.00,Wunderground v.1.15,2013-03-04 14:39:00,
2013-03-04 09:44:00,33.5,18.2,29.83,NNW,345,0.0,0.0,53,0.00,,,0.00,Wunderground v.1.15,2013-03-04 14:44:00,
2013-03-04 09:49:00,33.8,18.0,29.83,West,272,0.0,0.0,52,0.00,,,0.00,Wunderground v.1.15,2013-03-04 14:49:00,
2013-03-04 09:54:00,33.5,17.7,29.83,WNW,286,0.0,0.0,52,0.00,,,0.00,Wunderground v.1.15,2013-03-04 14:54:00,
2013-03-04 09:59:00,33.5,18.2,29.83,WNW,301,0.0,0.0,53,0.00,,,0.00,Wunderground v.1.15,2013-03-04 14:59:00,
2013-03-04 10:04:00,33.8,18.0,29.83,WNW,286,0.0,0.0,52,0.00,,,0.00,Wunderground v.1.15,2013-03-04 15:04:00,
2013-03-04 10:09:00,34.0,17.7,29.83,WNW,300,0.0,0.0,51,0.00,,,0.00,Wunderground v.1.15,2013-03-04 15:09:00,
2013-03-04 10:14:00,34.3,18.0,29.83,West,271,0.0,0.0,51,0.00,,,0.00,Wunderground v.1.15,2013-03-04 15:14:00,
2013-03-04 10:19:00,34.4,17.7,29.83,NNW,336,0.0,0.0,50,0.00,,,0.00,Wunderground v.1.15,2013-03-04 15:19:00,
2013-03-04 10:24:00,34.6,18.3,29.83,WNW,285,0.0,0.0,51,0.00,,,0.00,Wunderground v.1.15,2013-03-04 15:24:00,
2013-03-04 10:29:00,35.3,18.5,29.83,WSW,250,0.0,0.0,50,0.00,,,0.00,Wunderground v.1.15,2013-03-04 15:29:00,
2013-03-04 10:34:00,35.2,17.9,29.84,NW,313,0.0,0.0,49,0.00,,,0.00,Wunderground v.1.15,2013-03-04 15:34:00,
2013-03-04 10:39:00,35.2,17.9,29.84,West,259,0.0,0.0,49,0.00,,,0.00,Wunderground v.1.15,2013-03-04 15:39:00,
2013-03-04 10:44:00,35.3,18.0,29.83,WNW,285,0.0,0.0,49,0.00,,,0.00,Wunderground v.1.15,2013-03-04 15:44:00,
2013-03-04 10:49:00,35.8,18.0,29.83,WNW,288,0.0,0.0,48,0.00,,,0.00,Wunderground v.1.15,2013-03-04 15:49:00,
2013-03-04 10:54:00,35.9,18.1,29.83,West,264,0.0,0.0,48,0.00,,,0.00,Wunderground v.1.15,2013-03-04 15:54:00,
2013-03-04 10:59:00,35.9,17.6,29.83,West,271,0.0,0.0,47,0.00,,,0.00,Wunderground v.1.15,2013-03-04 15:59:00,
2013-03-04 11:04:00,36.0,17.7,29.83,NW,306,0.0,0.0,47,0.00,,,0.00,Wunderground v.1.15,2013-03-04 16:04:00,
2013-03-04 11:09:00,36.2,17.4,29.83,NW,314,0.0,0.0,46,0.00,,,0.00,Wunderground v.1.15,2013-03-04 16:09:00,
2013-03-04 11:14:00,36.2,17.4,29.83,West,273,0.0,0.0,46,0.00,,,0.00,Wunderground v.1.15,2013-03-04 16:14:00,
2013-03-04 11:19:00,36.3,17.5,29.83,North,360,0.0,0.0,46,0.00,,,0.00,Wunderground v.1.15,2013-03-04 16:19:00,
2013-03-04 11:24:00,36.3,18.0,29.83,WSW,254,0.0,0.0,47,0.00,,,0.00,Wunderground v.1.15,2013-03-04 16:24:00,
2013-03-04 11:29:00,36.8,17.9,29.83,NW,304,0.0,0.0,46,0.00,,,0.00,Wunderground v.1.15,2013-03-04 16:29:00,
2013-03-04 11:34:00,37.0,18.1,29.83,NW,317,0.0,0.0,46,0.00,,,0.00,Wunderground v.1.15,2013-03-04 16:34:00,
2013-03-04 11:39:00,37.0,18.1,29.82,WNW,300,0.0,0.0,46,0.00,,,0.00,Wunderground v.1.15,2013-03-04 16:39:00,
2013-03-04 11:44:00,37.3,17.9,29.82,WNW,296,0.0,0.0,45,0.00,,,0.00,Wunderground v.1.15,2013-03-04 16:44:00,
2013-03-04 11:50:00,37.2,17.3,29.82,WNW,289,0.0,0.0,44,0.00,,,0.00,Wunderground v.1.15,2013-03-04 16:50:00,
2013-03-04 11:55:00,37.2,17.3,29.82,WNW,294,0.0,0.0,44,0.00,,,0.00,Wunderground v.1.15,2013-03-04 16:55:00,
2013-03-04 12:00:00,36.9,17.0,29.82,WNW,292,0.0,0.0,44,0.00,,,0.00,Wunderground v.1.15,2013-03-04 17:00:00,
2013-03-04 12:05:00,37.6,17.6,29.82,NNW,342,0.0,0.0,44,0.00,,,0.00,Wunderground v.1.15,2013-03-04 17:05:00,
2013-03-04 12:10:00,38.2,17.6,29.82,WSW,248,0.0,0.0,43,0.00,,,0.00,Wunderground v.1.15,2013-03-04 17:10:00,
2013-03-04 12:15:00,37.8,17.3,29.82,West,277,0.0,0.0,43,0.00,,,0.00,Wunderground v.1.15,2013-03-04 17:15:00,
2013-03-04 12:20:00,38.3,18.3,29.82,SW,228,0.0,0.0,44,0.00,,,0.00,Wunderground v.1.15,2013-03-04 17:20:00,
2013-03-04 12:25:00,38.3,17.2,29.82,WNW,298,0.0,0.0,42,0.00,,,0.00,Wunderground v.1.15,2013-03-04 17:25:00,
2013-03-04 12:30:00,38.3,17.2,29.82,West,277,0.0,0.0,42,0.00,,,0.00,Wunderground v.1.15,2013-03-04 17:30:00,
2013-03-04 12:35:00,38.5,17.4,29.81,WNW,295,0.0,0.0,42,0.00,,,0.00,Wunderground v.1.15,2013-03-04 17:35:00,
2013-03-04 12:41:00,38.9,17.7,29.81,West,277,0.0,0.0,42,0.00,,,0.00,Wunderground v.1.15,2013-03-04 17:41:00,
2013-03-04 12:46:00,39.1,17.9,29.81,WNW,301,0.0,0.0,42,0.00,,,0.00,Wunderground v.1.15,2013-03-04 17:46:00,
2013-03-04 12:51:00,39.8,18.0,29.80,NW,308,0.0,0.0,41,0.00,,,0.00,Wunderground v.1.15,2013-03-04 17:51:00,
2013-03-04 12:56:00,39.5,17.7,29.81,WNW,299,0.0,0.0,41,0.00,,,0.00,Wunderground v.1.15,2013-03-04 17:56:00,
2013-03-04 13:01:00,39.3,17.5,29.81,West,259,0.0,0.0,41,0.00,,,0.00,Wunderground v.1.15,2013-03-04 18:01:00,
2013-03-04 13:06:00,39.6,18.4,29.80,West,268,0.0,0.0,42,0.00,,,0.00,Wunderground v.1.15,2013-03-04 18:06:00,
2013-03-04 13:11:00,39.9,18.1,29.80,WNW,302,0.0,0.0,41,0.00,,,0.00,Wunderground v.1.15,2013-03-04 18:11:00,
2013-03-04 13:16:00,39.9,18.1,29.80,NW,307,0.0,0.0,41,0.00,,,0.00,Wunderground v.1.15,2013-03-04 18:16:00,
2013-03-04 13:22:00,39.9,18.1,29.79,NW,308,0.0,0.0,41,0.00,,,0.00,Wunderground v.1.15,2013-03-04 18:22:00,
2013-03-04 13:27:00,40.1,17.7,29.79,NW,313,0.0,0.0,40,0.00,,,0.00,Wunderground v.1.15,2013-03-04 18:27:00,
2013-03-04 13:29:00,40.2,17.8,29.79,WNW,291,0.0,0.0,40,0.00,,,0.00,Wunderground v.1.15,2013-03-04 18:29:00,
2013-03-04 13:30:00,40.1,17.7,29.79,SW,232,0.0,0.0,40,0.00,,,0.00,Wunderground v.1.15,2013-03-04 18:30:00,
2013-03-04 13:35:00,40.2,17.8,29.79,West,279,0.0,0.0,40,0.00,,,0.00,Wunderground v.1.15,2013-03-04 18:35:00,
2013-03-04 13:40:00,40.3,17.9,29.79,WNW,288,0.0,0.0,40,0.00,,,0.00,Wunderground v.1.15,2013-03-04 18:40:00,
2013-03-04 13:45:00,40.6,17.5,29.79,WNW,298,0.0,0.0,39,0.00,,,0.00,Wunderground v.1.15,2013-03-04 18:45:00,
2013-03-04 13:50:00,40.6,18.1,29.79,West,275,0.0,0.0,40,0.00,,,0.00,Wunderground v.1.15,2013-03-04 18:50:00,
2013-03-04 13:55:00,40.5,17.5,29.79,WNW,296,0.0,0.0,39,0.00,,,0.00,Wunderground v.1.15,2013-03-04 18:55:00,
2013-03-04 14:00:00,40.8,17.7,29.80,WNW,288,0.0,0.0,39,0.00,,,0.00,Wunderground v.1.15,2013-03-04 19:00:00,
2013-03-04 14:06:00,40.6,18.1,29.79,WNW,301,0.0,0.0,40,0.00,,,0.00,Wunderground v.1.15,2013-03-04 19:06:00,
2013-03-04 14:11:00,40.9,17.8,29.79,WSW,242,0.0,0.0,39,0.00,,,0.00,Wunderground v.1.15,2013-03-04 19:11:00,
2013-03-04 14:16:00,41.2,18.1,29.79,WSW,249,0.0,0.0,39,0.00,,,0.00,Wunderground v.1.15,2013-03-04 19:16:00,
2013-03-04 14:21:00,41.3,18.2,29.79,NNW,329,0.0,0.0,39,0.00,,,0.00,Wunderground v.1.15,2013-03-04 19:21:00,
2013-03-04 14:26:00,40.9,18.4,29.79,WNW,303,0.0,0.0,40,0.00,,,0.00,Wunderground v.1.15,2013-03-04 19:26:00,
2013-03-04 14:31:00,41.2,18.1,29.79,West,273,0.0,0.0,39,0.00,,,0.00,Wunderground v.1.15,2013-03-04 19:31:00,
2013-03-04 14:36:00,41.3,18.2,29.79,West,275,0.0,0.0,39,0.00,,,0.00,Wunderground v.1.15,2013-03-04 19:36:00,
2013-03-04 14:41:00,41.2,18.1,29.79,WNW,283,0.0,0.0,39,0.00,,,0.00,Wunderground v.1.15,2013-03-04 19:41:00,
2013-03-04 14:46:00,41.5,18.4,29.79,WNW,293,0.0,0.0,39,0.00,,,0.00,Wunderground v.1.15,2013-03-04 19:46:00,
2013-03-04 14:51:00,41.5,18.4,29.79,West,277,0.0,0.0,39,0.00,,,0.00,Wunderground v.1.15,2013-03-04 19:51:00,
2013-03-04 14:56:00,41.5,18.4,29.79,WNW,293,0.0,0.0,39,0.00,,,0.00,Wunderground v.1.15,2013-03-04 19:56:00,
2013-03-04 15:01:00,41.5,18.4,29.79,WSW,246,0.0,0.0,39,0.00,,,0.00,Wunderground v.1.15,2013-03-04 20:01:00,
2013-03-04 15:06:00,41.5,18.4,29.79,West,271,0.0,0.0,39,0.00,,,0.00,Wunderground v.1.15,2013-03-04 20:06:00,
2013-03-04 15:11:00,41.5,18.9,29.79,WNW,302,0.0,0.0,40,0.00,,,0.00,Wunderground v.1.15,2013-03-04 20:11:00,
2013-03-04 15:16:00,41.8,18.6,29.79,WNW,286,0.0,0.0,39,0.00,,,0.00,Wunderground v.1.15,2013-03-04 20:16:00,
2013-03-04 15:21:00,41.6,18.4,29.78,WNW,298,0.0,0.0,39,0.00,,,0.00,Wunderground v.1.15,2013-03-04 20:21:00,
2013-03-04 15:26:00,41.8,18.6,29.79,West,271,0.0,0.0,39,0.00,,,0.00,Wunderground v.1.15,2013-03-04 20:26:00,
2013-03-04 15:31:00,42.2,19.0,29.79,West,279,0.0,0.0,39,0.00,,,0.00,Wunderground v.1.15,2013-03-04 20:31:00,
2013-03-04 15:36:00,42.1,18.9,29.79,WNW,284,0.0,0.0,39,0.00,,,0.00,Wunderground v.1.15,2013-03-04 20:36:00,
2013-03-04 15:41:00,41.9,18.7,29.79,West,261,0.0,0.0,39,0.00,,,0.00,Wunderground v.1.15,2013-03-04 20:41:00,
2013-03-04 15:46:00,41.9,18.7,29.79,West,277,0.0,0.0,39,0.00,,,0.00,Wunderground v.1.15,2013-03-04 20:46:00,
2013-03-04 15:51:00,42.2,19.0,29.79,West,275,0.0,0.0,39,0.00,,,0.00,Wunderground v.1.15,2013-03-04 20:51:00,
2013-03-04 15:57:00,41.8,18.6,29.79,NW,309,0.0,0.0,39,0.00,,,0.00,Wunderground v.1.15,2013-03-04 20:57:00,
2013-03-04 16:02:00,41.8,18.6,29.79,WSW,241,0.0,0.0,39,0.00,,,0.00,Wunderground v.1.15,2013-03-04 21:02:00,
2013-03-04 16:07:00,41.8,18.6,29.79,NW,319,0.0,0.0,39,0.00,,,0.00,Wunderground v.1.15,2013-03-04 21:07:00,
2013-03-04 16:12:00,41.8,18.6,29.80,NW,313,0.0,0.0,39,0.00,,,0.00,Wunderground v.1.15,2013-03-04 21:12:00,
2013-03-04 16:17:00,42.1,18.9,29.80,West,272,0.0,0.0,39,0.00,,,0.00,Wunderground v.1.15,2013-03-04 21:17:00,
2013-03-04 16:22:00,41.9,18.7,29.80,WNW,283,0.0,0.0,39,0.00,,,0.00,Wunderground v.1.15,2013-03-04 21:22:00,
2013-03-04 16:27:00,41.9,18.7,29.80,WNW,282,0.0,0.0,39,0.00,,,0.00,Wunderground v.1.15,2013-03-04 21:27:00,
2013-03-04 16:32:00,42.1,18.9,29.80,NW,306,0.0,0.0,39,0.00,,,0.00,Wunderground v.1.15,2013-03-04 21:32:00,
2013-03-04 16:37:00,41.8,18.6,29.80,WNW,288,0.0,0.0,39,0.00,,,0.00,Wunderground v.1.15,2013-03-04 21:37:00,
2013-03-04 16:43:00,41.6,17.8,29.80,NNW,336,0.0,0.0,38,0.00,,,0.00,Wunderground v.1.15,2013-03-04 21:43:00,
2013-03-04 16:48:00,41.6,18.4,29.80,West,271,0.0,0.0,39,0.00,,,0.00,Wunderground v.1.15,2013-03-04 21:48:00,
2013-03-04 16:53:00,41.5,18.4,29.80,West,275,0.0,0.0,39,0.00,,,0.00,Wunderground v.1.15,2013-03-04 21:53:00,
2013-03-04 16:59:00,41.5,18.4,29.80,WSW,242,0.0,0.0,39,0.00,,,0.00,Wunderground v.1.15,2013-03-04 21:59:00,
2013-03-04 17:04:00,41.3,18.2,29.81,NW,325,0.0,0.0,39,0.00,,,0.00,Wunderground v.1.15,2013-03-04 22:04:00,
2013-03-04 17:09:00,41.2,18.1,29.81,West,278,0.0,0.0,39,0.00,,,0.00,Wunderground v.1.15,2013-03-04 22:09:00,
2013-03-04 17:14:00,41.1,18.0,29.81,NNW,338,0.0,0.0,39,0.00,,,0.00,Wunderground v.1.15,2013-03-04 22:14:00,
2013-03-04 17:19:00,40.9,17.8,29.81,NW,323,0.0,0.0,39,0.00,,,0.00,Wunderground v.1.15,2013-03-04 22:19:00,
2013-03-04 17:24:00,40.9,18.4,29.81,WNW,290,0.0,0.0,40,0.00,,,0.00,Wunderground v.1.15,2013-03-04 22:24:00,
2013-03-04 17:29:00,40.8,17.7,29.81,NW,313,0.0,0.0,39,0.00,,,0.00,Wunderground v.1.15,2013-03-04 22:29:00,
2013-03-04 17:34:00,40.5,18.0,29.82,West,271,0.0,0.0,40,0.00,,,0.00,Wunderground v.1.15,2013-03-04 22:34:00,
2013-03-04 17:39:00,40.5,18.0,29.82,West,280,0.0,0.0,40,0.00,,,0.00,Wunderground v.1.15,2013-03-04 22:39:00,
2013-03-04 17:44:00,40.3,17.9,29.82,NW,311,0.0,0.0,40,0.00,,,0.00,Wunderground v.1.15,2013-03-04 22:44:00,
2013-03-04 17:49:00,40.2,18.3,29.82,West,277,0.0,0.0,41,0.00,,,0.00,Wunderground v.1.15,2013-03-04 22:49:00,
2013-03-04 17:54:00,40.1,18.3,29.82,WNW,282,0.0,0.0,41,0.00,,,0.00,Wunderground v.1.15,2013-03-04 22:54:00,
2013-03-04 17:59:00,39.9,18.1,29.82,WNW,295,0.0,0.0,41,0.00,,,0.00,Wunderground v.1.15,2013-03-04 22:59:00,
2013-03-04 18:04:00,39.8,18.0,29.83,WSW,240,0.0,0.0,41,0.00,,,0.00,Wunderground v.1.15,2013-03-04 23:04:00,
2013-03-04 18:09:00,39.8,18.0,29.83,West,267,0.0,0.0,41,0.00,,,0.00,Wunderground v.1.15,2013-03-04 23:09:00,
2013-03-04 18:14:00,39.6,17.8,29.83,WNW,293,0.0,0.0,41,0.00,,,0.00,Wunderground v.1.15,2013-03-04 23:14:00,
2013-03-04 18:19:00,39.5,18.3,29.84,WSW,253,0.0,0.0,42,0.00,,,0.00,Wunderground v.1.15,2013-03-04 23:19:00,
2013-03-04 18:24:00,39.3,18.1,29.84,WSW,257,0.0,0.0,42,0.00,,,0.00,Wunderground v.1.15,2013-03-04 23:24:00,
2013-03-04 18:29:00,39.1,17.9,29.84,WNW,294,0.0,0.0,42,0.00,,,0.00,Wunderground v.1.15,2013-03-04 23:29:00,
2013-03-04 18:34:00,39.1,17.9,29.84,NW,306,0.0,0.0,42,0.00,,,0.00,Wunderground v.1.15,2013-03-04 23:34:00,
2013-03-04 18:39:00,39.1,17.9,29.84,WNW,295,0.0,0.0,42,0.00,,,0.00,Wunderground v.1.15,2013-03-04 23:39:00,
2013-03-04 18:44:00,38.9,18.3,29.85,WNW,291,0.0,0.0,43,0.00,,,0.00,Wunderground v.1.15,2013-03-04 23:44:00,
2013-03-04 18:49:00,38.8,18.2,29.85,WNW,294,0.0,0.0,43,0.00,,,0.00,Wunderground v.1.15,2013-03-04 23:49:00,
2013-03-04 18:54:00,38.6,18.0,29.86,WNW,302,0.0,0.0,43,0.00,,,0.00,Wunderground v.1.15,2013-03-04 23:54:00,
2013-03-04 19:21:00,37.8,18.3,29.87,WNW,299,0.0,0.0,45,0.00,,,0.00,Wunderground v.1.15,2013-03-05 00:21:00,
2013-03-04 19:22:00,37.8,18.3,29.87,WNW,299,0.0,0.0,45,0.00,,,0.00,Wunderground v.1.15,2013-03-05 00:22:00,
2013-03-04 19:26:00,37.6,18.7,29.87,WNW,296,0.0,0.0,46,0.00,,,0.00,Wunderground v.1.15,2013-03-05 00:26:00,
2013-03-04 19:27:00,37.6,18.7,29.87,WNW,296,0.0,0.0,46,0.00,,,0.00,Wunderground v.1.15,2013-03-05 00:27:00,
2013-03-04 19:28:00,37.6,18.7,29.87,WNW,296,0.0,0.0,46,0.00,,,0.00,Wunderground v.1.15,2013-03-05 00:28:00,
2013-03-04 19:31:00,37.5,18.6,29.87,WNW,298,0.0,0.0,46,0.00,,,0.00,Wunderground v.1.15,2013-03-05 00:31:00,
2013-03-04 19:33:00,37.3,18.4,29.87,NW,324,0.0,0.0,46,0.00,,,0.00,Wunderground v.1.15,2013-03-05 00:33:00,
2013-03-04 19:34:00,37.5,18.1,29.87,NW,315,0.0,0.0,45,0.00,,,0.00,Wunderground v.1.15,2013-03-05 00:34:00,
2013-03-04 19:36:00,37.5,18.1,29.87,WNW,298,0.0,0.0,45,0.00,,,0.00,Wunderground v.1.15,2013-03-05 00:36:00,
2013-03-04 19:38:00,37.6,18.2,29.88,WNW,284,0.0,0.0,45,0.00,,,0.00,Wunderground v.1.15,2013-03-05 00:38:00,
2013-03-04 19:39:00,37.6,17.6,29.87,NNW,340,0.0,0.0,44,0.00,,,0.00,Wunderground v.1.15,2013-03-05 00:39:00,
2013-03-04 19:41:00,37.8,17.8,29.88,West,281,0.0,0.0,44,0.00,,,0.00,Wunderground v.1.15,2013-03-05 00:41:00,
2013-03-04 19:42:00,37.8,17.8,29.87,West,273,0.0,0.0,44,0.00,,,0.00,Wunderground v.1.15,2013-03-05 00:42:00,
2013-03-04 19:43:00,37.6,17.6,29.88,WNW,286,0.0,0.0,44,0.00,,,0.00,Wunderground v.1.15,2013-03-05 00:43:00,
2013-03-04 19:45:00,37.6,17.6,29.88,NW,318,0.0,0.0,44,0.00,,,0.00,Wunderground v.1.15,2013-03-05 00:45:00,
2013-03-04 19:46:00,37.6,17.6,29.88,WNW,300,0.0,0.0,44,0.00,,,0.00,Wunderground v.1.15,2013-03-05 00:46:00,
2013-03-04 19:47:00,37.6,17.6,29.88,WNW,283,0.0,0.0,44,0.00,,,0.00,Wunderground v.1.15,2013-03-05 00:47:00,
2013-03-04 19:48:00,37.5,18.1,29.88,West,274,0.0,0.0,45,0.00,,,0.00,Wunderground v.1.15,2013-03-05 00:48:00,
2013-03-04 19:51:00,37.5,17.5,29.88,NW,312,0.0,0.0,44,0.00,,,0.00,Wunderground v.1.15,2013-03-05 00:51:00,
2013-03-04 19:52:00,37.5,17.5,29.88,West,278,0.0,0.0,44,0.00,,,0.00,Wunderground v.1.15,2013-03-05 00:52:00,
2013-03-04 19:53:00,37.5,18.1,29.88,West,281,0.0,0.0,45,0.00,,,0.00,Wunderground v.1.15,2013-03-05 00:53:00,
2013-03-04 19:56:00,37.3,17.9,29.88,NW,313,0.0,0.0,45,0.00,,,0.00,Wunderground v.1.15,2013-03-05 00:56:00,
2013-03-04 19:57:00,37.3,17.9,29.88,NNW,339,0.0,0.0,45,0.00,,,0.00,Wunderground v.1.15,2013-03-05 00:57:00,
2013-03-04 19:59:00,37.2,17.8,29.88,NW,320,0.0,0.0,45,0.00,,,0.00,Wunderground v.1.15,2013-03-05 00:59:00,
2013-03-04 20:02:00,37.0,18.1,29.88,WNW,282,0.0,0.0,46,0.00,,,0.00,Wunderground v.1.15,2013-03-05 01:02:00,
2013-03-04 20:04:00,37.0,17.6,29.88,West,277,0.0,0.0,45,0.00,,,0.00,Wunderground v.1.15,2013-03-05 01:04:00,
2013-03-04 20:07:00,37.0,17.6,29.89,NW,325,0.0,0.0,45,0.00,,,0.00,Wunderground v.1.15,2013-03-05 01:07:00,
2013-03-04 20:10:00,36.9,18.0,29.89,West,281,0.0,0.0,46,0.00,,,0.00,Wunderground v.1.15,2013-03-05 01:10:00,
2013-03-04 20:12:00,36.9,18.0,29.89,WNW,283,0.0,0.0,46,0.00,,,0.00,Wunderground v.1.15,2013-03-05 01:12:00,
2013-03-04 20:13:00,36.8,17.9,29.88,NW,319,0.0,0.0,46,0.00,,,0.00,Wunderground v.1.15,2013-03-05 01:13:00,
2013-03-04 20:15:00,36.8,17.9,29.88,WNW,289,0.0,0.0,46,0.00,,,0.00,Wunderground v.1.15,2013-03-05 01:15:00,
2013-03-04 20:17:00,36.8,17.9,29.89,West,279,0.0,0.0,46,0.00,,,0.00,Wunderground v.1.15,2013-03-05 01:17:00,
2013-03-04 20:18:00,36.8,17.9,29.89,WSW,247,0.0,0.0,46,0.00,,,0.00,Wunderground v.1.15,2013-03-05 01:18:00,
2013-03-04 20:21:00,36.6,17.7,29.89,NW,305,0.0,0.0,46,0.00,,,0.00,Wunderground v.1.15,2013-03-05 01:21:00,
2013-03-04 20:22:00,36.6,17.7,29.89,NW,313,0.0,0.0,46,0.00,,,0.00,Wunderground v.1.15,2013-03-05 01:22:00,
2013-03-04 20:23:00,36.6,17.7,29.89,NW,324,0.0,0.0,46,0.00,,,0.00,Wunderground v.1.15,2013-03-05 01:23:00,
2013-03-04 20:26:00,36.6,17.7,29.89,WNW,285,0.0,0.0,46,0.00,,,0.00,Wunderground v.1.15,2013-03-05 01:26:00,
2013-03-04 20:27:00,36.5,17.7,29.89,WNW,292,0.0,0.0,46,0.00,,,0.00,Wunderground v.1.15,2013-03-05 01:27:00,
2013-03-04 20:28:00,36.5,17.7,29.89,NW,305,0.0,0.0,46,0.00,,,0.00,Wunderground v.1.15,2013-03-05 01:28:00,
2013-03-04 20:29:00,36.5,18.2,29.89,WNW,300,0.0,0.0,47,0.00,,,0.00,Wunderground v.1.15,2013-03-05 01:29:00,
2013-03-04 20:31:00,36.5,17.7,29.89,WNW,301,0.0,0.0,46,0.00,,,0.00,Wunderground v.1.15,2013-03-05 01:31:00,
2013-03-04 20:32:00,36.5,17.7,29.89,NW,308,0.0,0.0,46,0.00,,,0.00,Wunderground v.1.15,2013-03-05 01:32:00,
2013-03-04 20:34:00,36.3,17.5,29.89,WNW,297,0.0,0.0,46,0.00,,,0.00,Wunderground v.1.15,2013-03-05 01:34:00,
2013-03-04 20:35:00,36.3,17.5,29.89,NW,305,0.0,0.0,46,0.00,,,0.00,Wunderground v.1.15,2013-03-05 01:35:00,
2013-03-04 20:37:00,36.3,17.5,29.89,NW,316,0.0,0.0,46,0.00,,,0.00,Wunderground v.1.15,2013-03-05 01:37:00,
2013-03-04 20:38:00,36.3,17.5,29.89,WNW,290,0.0,0.0,46,0.00,,,0.00,Wunderground v.1.15,2013-03-05 01:38:00,
2013-03-04 20:39:00,36.3,18.0,29.89,West,272,0.0,0.0,47,0.00,,,0.00,Wunderground v.1.15,2013-03-05 01:39:00,
2013-03-04 20:40:00,36.3,18.0,29.89,NW,317,0.0,0.0,47,0.00,,,0.00,Wunderground v.1.15,2013-03-05 01:40:00,
2013-03-04 20:43:00,36.3,18.0,29.89,NE,44,0.0,0.0,47,0.00,,,0.00,Wunderground v.1.15,2013-03-05 01:43:00,
2013-03-04 20:45:00,36.3,18.0,29.89,WNW,293,0.0,0.0,47,0.00,,,0.00,Wunderground v.1.15,2013-03-05 01:45:00,
2013-03-04 20:46:00,36.2,17.9,29.89,WNW,288,0.0,0.0,47,0.00,,,0.00,Wunderground v.1.15,2013-03-05 01:46:00,
2013-03-04 20:48:00,36.2,17.9,29.89,West,270,0.0,0.0,47,0.00,,,0.00,Wunderground v.1.15,2013-03-05 01:48:00,
2013-03-04 20:50:00,36.2,18.4,29.89,WNW,283,0.0,0.0,48,0.00,,,0.00,Wunderground v.1.15,2013-03-05 01:50:00,
2013-03-04 20:51:00,36.0,18.2,29.89,West,278,0.0,0.0,48,0.00,,,0.00,Wunderground v.1.15,2013-03-05 01:51:00,
2013-03-04 20:53:00,36.0,18.2,29.89,West,273,0.0,0.0,48,0.00,,,0.00,Wunderground v.1.15,2013-03-05 01:53:00,
2013-03-04 20:55:00,36.0,18.2,29.89,NW,323,0.0,0.0,48,0.00,,,0.00,Wunderground v.1.15,2013-03-05 01:55:00,
2013-03-04 20:56:00,35.9,18.1,29.89,West,279,0.0,0.0,48,0.00,,,0.00,Wunderground v.1.15,2013-03-05 01:56:00,
2013-03-04 20:58:00,35.9,18.1,29.89,WNW,292,0.0,0.0,48,0.00,,,0.00,Wunderground v.1.15,2013-03-05 01:58:00,
2013-03-04 20:59:00,35.9,18.1,29.89,WNW,300,0.0,0.0,48,0.00,,,0.00,Wunderground v.1.15,2013-03-05 01:59:00,
2013-03-04 21:00:00,35.9,18.6,29.89,WNW,288,0.0,0.0,49,0.00,,,0.00,Wunderground v.1.15,2013-03-05 02:00:00,
2013-03-04 21:01:00,35.9,18.1,29.89,NW,309,0.0,0.0,48,0.00,,,0.00,Wunderground v.1.15,2013-03-05 02:01:00,
2013-03-04 21:03:00,35.9,18.1,29.89,NW,309,0.0,0.0,48,0.00,,,0.00,Wunderground v.1.15,2013-03-05 02:03:00,
2013-03-04 21:04:00,35.9,18.6,29.89,WNW,290,0.0,0.0,49,0.00,,,0.00,Wunderground v.1.15,2013-03-05 02:04:00,
2013-03-04 21:06:00,35.8,18.5,29.90,NW,311,0.0,0.0,49,0.00,,,0.00,Wunderground v.1.15,2013-03-05 02:06:00,
2013-03-04 21:07:00,35.8,18.5,29.89,WNW,303,0.0,0.0,49,0.00,,,0.00,Wunderground v.1.15,2013-03-05 02:07:00,
2013-03-04 21:08:00,35.8,18.5,29.90,NW,304,0.0,0.0,49,0.00,,,0.00,Wunderground v.1.15,2013-03-05 02:08:00,
2013-03-04 21:10:00,35.8,18.5,29.90,WNW,286,0.0,0.0,49,0.00,,,0.00,Wunderground v.1.15,2013-03-05 02:10:00,
2013-03-04 21:11:00,35.8,18.5,29.90,NW,309,0.0,0.0,49,0.00,,,0.00,Wunderground v.1.15,2013-03-05 02:11:00,
2013-03-04 21:13:00,35.6,18.3,29.90,North,355,0.0,0.0,49,0.00,,,0.00,Wunderground v.1.15,2013-03-05 02:13:00,
2013-03-04 21:15:00,35.6,18.3,29.90,NW,310,0.0,0.0,49,0.00,,,0.00,Wunderground v.1.15,2013-03-05 02:15:00,
2013-03-04 21:16:00,35.6,18.3,29.90,WNW,302,0.0,0.0,49,0.00,,,0.00,Wunderground v.1.15,2013-03-05 02:16:00,
2013-03-04 21:18:00,35.6,18.3,29.90,WNW,285,0.0,0.0,49,0.00,,,0.00,Wunderground v.1.15,2013-03-05 02:18:00,
2013-03-04 21:20:00,35.6,18.3,29.90,NW,309,0.0,0.0,49,0.00,,,0.00,Wunderground v.1.15,2013-03-05 02:20:00,
2013-03-04 21:21:00,35.6,18.3,29.90,NW,305,0.0,0.0,49,0.00,,,0.00,Wunderground v.1.15,2013-03-05 02:21:00,
2013-03-04 21:24:00,35.6,18.8,29.90,North,355,0.0,0.0,50,0.00,,,0.00,Wunderground v.1.15,2013-03-05 02:24:00,
2013-03-04 21:26:00,35.6,18.8,29.90,WNW,299,0.0,0.0,50,0.00,,,0.00,Wunderground v.1.15,2013-03-05 02:26:00,
2013-03-04 21:29:00,35.6,18.8,29.90,WNW,294,0.0,0.0,50,0.00,,,0.00,Wunderground v.1.15,2013-03-05 02:29:00,
2013-03-04 21:31:00,35.5,18.7,29.90,West,281,0.0,0.0,50,0.00,,,0.00,Wunderground v.1.15,2013-03-05 02:31:00,
2013-03-04 21:32:00,35.5,18.7,29.90,North,350,0.0,0.0,50,0.00,,,0.00,Wunderground v.1.15,2013-03-05 02:32:00,
2013-03-04 21:34:00,35.5,18.7,29.91,WNW,293,0.0,0.0,50,0.00,,,0.00,Wunderground v.1.15,2013-03-05 02:34:00,
2013-03-04 21:36:00,35.5,18.7,29.90,NW,308,0.0,0.0,50,0.00,,,0.00,Wunderground v.1.15,2013-03-05 02:36:00,
2013-03-04 21:38:00,35.3,18.5,29.91,WNW,290,0.0,0.0,50,0.00,,,0.00,Wunderground v.1.15,2013-03-05 02:38:00,
2013-03-04 21:39:00,35.3,18.5,29.90,WNW,288,0.0,0.0,50,0.00,,,0.00,Wunderground v.1.15,2013-03-05 02:39:00,
2013-03-04 21:41:00,35.3,18.5,29.91,WNW,293,0.0,0.0,50,0.00,,,0.00,Wunderground v.1.15,2013-03-05 02:41:00,
2013-03-04 21:43:00,35.3,19.0,29.91,NW,309,0.0,0.0,51,0.00,,,0.00,Wunderground v.1.15,2013-03-05 02:43:00,
2013-03-04 21:44:00,35.3,19.0,29.91,WNW,290,0.0,0.0,51,0.00,,,0.00,Wunderground v.1.15,2013-03-05 02:44:00,
2013-03-04 21:46:00,35.3,19.0,29.91,WNW,293,0.0,0.0,51,0.00,,,0.00,Wunderground v.1.15,2013-03-05 02:46:00,
2013-03-04 21:47:00,35.3,19.0,29.91,NW,309,0.0,0.0,51,0.00,,,0.00,Wunderground v.1.15,2013-03-05 02:47:00,
2013-03-04 21:49:00,35.3,19.0,29.91,NW,308,0.0,0.0,51,0.00,,,0.00,Wunderground v.1.15,2013-03-05 02:49:00,
2013-03-04 21:52:00,35.3,19.0,29.91,WNW,286,0.0,0.0,51,0.00,,,0.00,Wunderground v.1.15,2013-03-05 02:52:00,
2013-03-04 21:54:00,35.3,19.0,29.91,WNW,290,0.0,0.0,51,0.00,,,0.00,Wunderground v.1.15,2013-03-05 02:54:00,
2013-03-04 21:57:00,35.3,19.0,29.91,WNW,283,0.0,0.0,51,0.00,,,0.00,Wunderground v.1.15,2013-03-05 02:57:00,
2013-03-04 21:59:00,35.3,19.0,29.91,NW,313,0.0,0.0,51,0.00,,,0.00,Wunderground v.1.15,2013-03-05 02:59:00,
2013-03-04 22:00:00,35.3,19.0,29.91,WNW,303,0.0,0.0,51,0.00,,,0.00,Wunderground v.1.15,2013-03-05 03:00:00,
2013-03-04 22:02:00,35.3,19.0,29.91,NW,311,0.0,0.0,51,0.00,,,0.00,Wunderground v.1.15,2013-03-05 03:02:00,
2013-03-04 22:05:00,35.2,19.3,29.91,WNW,298,0.0,0.0,52,0.00,,,0.00,Wunderground v.1.15,2013-03-05 03:05:00,
2013-03-04 22:07:00,35.2,19.3,29.91,West,281,0.0,0.0,52,0.00,,,0.00,Wunderground v.1.15,2013-03-05 03:07:00,
2013-03-04 22:10:00,35.0,19.1,29.91,NW,309,0.0,0.0,52,0.00,,,0.00,Wunderground v.1.15,2013-03-05 03:10:00,
2013-03-04 22:12:00,35.0,19.1,29.91,NW,322,0.0,0.0,52,0.00,,,0.00,Wunderground v.1.15,2013-03-05 03:12:00,
2013-03-04 22:16:00,35.0,19.1,29.91,NNW,327,0.0,0.0,52,0.00,,,0.00,Wunderground v.1.15,2013-03-05 03:16:00,
2013-03-04 22:17:00,35.0,19.1,29.92,NW,304,0.0,0.0,52,0.00,,,0.00,Wunderground v.1.15,2013-03-05 03:17:00,
2013-03-04 22:18:00,35.0,19.1,29.91,West,269,0.0,0.0,52,0.00,,,0.00,Wunderground v.1.15,2013-03-05 03:18:00,
2013-03-04 22:21:00,35.0,19.1,29.92,NW,313,0.0,0.0,52,0.00,,,0.00,Wunderground v.1.15,2013-03-05 03:21:00,
2013-03-04 22:22:00,35.0,19.1,29.92,NNW,341,0.0,0.0,52,0.00,,,0.00,Wunderground v.1.15,2013-03-05 03:22:00,
2013-03-04 22:23:00,35.0,19.1,29.92,NW,308,0.0,0.0,52,0.00,,,0.00,Wunderground v.1.15,2013-03-05 03:23:00,
2013-03-04 22:26:00,35.2,19.3,29.92,WNW,291,0.0,0.0,52,0.00,,,0.00,Wunderground v.1.15,2013-03-05 03:26:00,
2013-03-04 22:27:00,35.2,19.3,29.92,NW,304,0.0,0.0,52,0.00,,,0.00,Wunderground v.1.15,2013-03-05 03:27:00,
2013-03-04 22:28:00,35.2,19.3,29.92,West,272,0.0,0.0,52,0.00,,,0.00,Wunderground v.1.15,2013-03-05 03:28:00,
2013-03-04 22:31:00,35.2,19.3,29.92,West,279,0.0,0.0,52,0.00,,,0.00,Wunderground v.1.15,2013-03-05 03:31:00,
2013-03-04 22:33:00,35.2,19.3,29.92,WNW,296,0.0,0.0,52,0.00,,,0.00,Wunderground v.1.15,2013-03-05 03:33:00,
2013-03-04 22:36:00,35.0,19.1,29.92,West,277,0.0,0.0,52,0.00,,,0.00,Wunderground v.1.15,2013-03-05 03:36:00,
2013-03-04 22:38:00,35.2,19.3,29.91,NW,319,0.0,0.0,52,0.00,,,0.00,Wunderground v.1.15,2013-03-05 03:38:00,
2013-03-04 22:42:00,35.2,19.3,29.92,West,278,0.0,0.0,52,0.00,,,0.00,Wunderground v.1.15,2013-03-05 03:42:00,
2013-03-04 22:43:00,35.2,19.3,29.92,WNW,288,0.0,0.0,52,0.00,,,0.00,Wunderground v.1.15,2013-03-05 03:43:00,
2013-03-04 22:44:00,35.2,19.3,29.92,NW,317,0.0,0.0,52,0.00,,,0.00,Wunderground v.1.15,2013-03-05 03:44:00,
2013-03-04 22:48:00,35.0,19.6,29.92,NW,307,0.0,0.0,53,0.00,,,0.00,Wunderground v.1.15,2013-03-05 03:48:00,
2013-03-04 22:49:00,35.0,19.6,29.92,WNW,290,0.0,0.0,53,0.00,,,0.00,Wunderground v.1.15,2013-03-05 03:49:00,
2013-03-04 22:53:00,34.9,19.5,29.92,NW,308,0.0,0.0,53,0.00,,,0.00,Wunderground v.1.15,2013-03-05 03:53:00,
2013-03-04 22:54:00,34.9,19.5,29.92,WSW,254,0.0,0.0,53,0.00,,,0.00,Wunderground v.1.15,2013-03-05 03:54:00,
2013-03-04 22:58:00,34.9,19.5,29.92,North,5,0.0,0.0,53,0.00,,,0.00,Wunderground v.1.15,2013-03-05 03:58:00,
2013-03-04 22:59:00,34.9,19.5,29.92,NW,304,0.0,0.0,53,0.00,,,0.00,Wunderground v.1.15,2013-03-05 03:59:00,
2013-03-04 23:00:00,34.7,19.7,29.92,WNW,286,0.0,0.0,54,0.00,,,0.00,Wunderground v.1.15,2013-03-05 04:00:00,
2013-03-04 23:04:00,34.7,19.7,29.92,West,267,0.0,0.0,54,0.00,,,0.00,Wunderground v.1.15,2013-03-05 04:04:00,
2013-03-04 23:07:00,34.7,19.7,29.93,NW,319,0.0,0.0,54,0.00,,,0.00,Wunderground v.1.15,2013-03-05 04:07:00,
2013-03-04 23:09:00,34.7,19.7,29.93,WNW,300,0.0,0.0,54,0.00,,,0.00,Wunderground v.1.15,2013-03-05 04:09:00,
2013-03-04 23:10:00,34.6,19.6,29.93,WNW,292,0.0,0.0,54,0.00,,,0.00,Wunderground v.1.15,2013-03-05 04:10:00,
2013-03-04 23:12:00,34.6,19.6,29.93,WNW,298,0.0,0.0,54,0.00,,,0.00,Wunderground v.1.15,2013-03-05 04:12:00,
2013-03-04 23:14:00,34.6,19.6,29.93,WNW,302,0.0,0.0,54,0.00,,,0.00,Wunderground v.1.15,2013-03-05 04:14:00,
2013-03-04 23:15:00,34.4,19.5,29.92,NW,317,0.0,0.0,54,0.00,,,0.00,Wunderground v.1.15,2013-03-05 04:15:00,
2013-03-04 23:18:00,34.4,19.5,29.92,West,273,0.0,0.0,54,0.00,,,0.00,Wunderground v.1.15,2013-03-05 04:18:00,
2013-03-04 23:19:00,34.4,19.5,29.92,NW,313,0.0,0.0,54,0.00,,,0.00,Wunderground v.1.15,2013-03-05 04:19:00,
2013-03-04 23:20:00,34.4,19.5,29.92,West,266,0.0,0.0,54,0.00,,,0.00,Wunderground v.1.15,2013-03-05 04:20:00,
2013-03-04 23:23:00,34.3,19.4,29.92,West,280,0.0,0.0,54,0.00,,,0.00,Wunderground v.1.15,2013-03-05 04:23:00,
2013-03-04 23:24:00,34.3,19.8,29.92,West,273,0.0,0.0,55,0.00,,,0.00,Wunderground v.1.15,2013-03-05 04:24:00,
2013-03-04 23:25:00,34.3,19.8,29.92,West,271,0.0,0.0,55,0.00,,,0.00,Wunderground v.1.15,2013-03-05 04:25:00,
2013-03-04 23:28:00,34.1,19.6,29.92,WNW,300,0.0,0.0,55,0.00,,,0.00,Wunderground v.1.15,2013-03-05 04:28:00,
2013-03-04 23:29:00,34.1,19.6,29.92,West,267,0.0,0.0,55,0.00,,,0.00,Wunderground v.1.15,2013-03-05 04:29:00,
2013-03-04 23:30:00,34.1,19.6,29.92,West,276,0.0,0.0,55,0.00,,,0.00,Wunderground v.1.15,2013-03-05 04:30:00,
2013-03-04 23:34:00,34.0,19.5,29.92,NW,315,0.0,0.0,55,0.00,,,0.00,Wunderground v.1.15,2013-03-05 04:34:00,
2013-03-04 23:35:00,34.0,19.5,29.92,WNW,299,0.0,0.0,55,0.00,,,0.00,Wunderground v.1.15,2013-03-05 04:35:00,
2013-03-04 23:39:00,34.0,19.5,29.92,West,277,0.0,0.0,55,0.00,,,0.00,Wunderground v.1.15,2013-03-05 04:39:00,
2013-03-04 23:40:00,34.0,19.5,29.92,West,277,0.0,0.0,55,0.00,,,0.00,Wunderground v.1.15,2013-03-05 04:40:00,
2013-03-04 23:44:00,34.0,19.5,29.93,NNW,329,0.0,0.0,55,0.00,,,0.00,Wunderground v.1.15,2013-03-05 04:44:00,
2013-03-04 23:45:00,34.0,19.5,29.93,NW,316,0.0,0.0,55,0.00,,,0.00,Wunderground v.1.15,2013-03-05 04:45:00,
2013-03-04 23:49:00,33.8,19.3,29.93,WNW,290,0.0,0.0,55,0.00,,,0.00,Wunderground v.1.15,2013-03-05 04:49:00,
2013-03-04 23:50:00,33.8,19.3,29.93,NW,307,0.0,0.0,55,0.00,,,0.00,Wunderground v.1.15,2013-03-05 04:50:00,
2013-03-04 23:51:00,33.8,19.3,29.93,WNW,293,0.0,0.0,55,0.00,,,0.00,Wunderground v.1.15,2013-03-05 04:51:00,
2013-03-04 23:55:00,33.8,19.7,29.93,West,261,0.0,0.0,56,0.00,,,0.00,Wunderground v.1.15,2013-03-05 04:55:00,
2013-03-04 23:56:00,33.7,19.7,29.93,West,273,0.0,0.0,56,0.00,,,0.00,Wunderground v.1.15,2013-03-05 04:56:00,